Date String (YYYY-MM-DD hh:mm:ss) UTC,Instrument flags,Ambient pressure (hPa),Sample flow (lpm),Bypass flow (lpm),Sample temperature (°C),Ambient temperature (°C),ASC tube jacket temperature (°C),LED temperature (°C),Box temperature (°C),Sample RH (%),Span deviation,Mass concentration (μg/m³),Mass concentration (μg/m³),Mass concentration (μg/m³)
DateTimeUTC,F1_M11,P_M11,Q1_M11,Q2_M11,T1_M11,T2_M11,T3_M11,T4_M11,T5_M11,U1_M11,ZSPAN_M11,X2_M11,X0_M11,X1_M11
2022-03-04 04:00:00,,0822.6,4.98,0.00,30.0,29.1,00.0,39.0,31.7,09.9,-001.8,0008.64,0020.14,0006.85
2022-03-04 04:01:00,,0822.6,5.01,0.00,30.0,29.2,00.0,39.0,31.7,10.0,-002.6,0008.48,0019.07,0006.75
2022-03-04 04:02:00,,0822.7,4.98,0.00,30.0,29.2,00.0,39.0,31.7,10.1,-002.2,0008.35,0017.95,0006.65
2022-03-04 04:03:00,,0822.7,4.99,0.00,30.0,29.1,00.0,39.0,31.7,10.2,-001.6,0008.29,0017.31,0006.59
2022-03-04 04:04:00,,0822.7,5.01,0.00,30.0,29.1,00.0,39.0,31.7,10.3,-001.5,0008.26,0018.08,0006.60
2022-03-04 04:05:00,,0822.7,4.99,0.00,30.0,29.1,00.0,39.0,31.8,10.4,-001.9,0008.31,0017.85,0006.66
2022-03-04 04:06:00,,0822.7,5.01,0.00,30.0,29.1,00.0,39.0,31.7,10.5,-002.0,0008.45,0018.19,0006.76
2022-03-04 04:07:00,,0822.7,5.00,0.00,30.0,29.1,00.0,39.0,31.7,10.6,-002.2,0008.62,0018.98,0006.91
2022-03-04 04:08:00,,0822.8,4.99,0.00,30.0,29.1,00.0,39.0,31.7,10.7,-002.3,0008.82,0019.74,0007.11
2022-03-04 04:09:00,,0822.8,5.03,0.00,29.9,29.0,00.0,39.0,31.7,10.8,-001.9,0009.06,0020.06,0007.33
2022-03-04 04:10:00,,0822.7,4.99,0.00,29.9,29.0,00.0,39.0,31.7,10.9,-002.1,0009.24,0020.31,0007.53
2022-03-04 04:11:00,,0822.8,5.02,0.00,29.9,29.0,00.0,39.0,31.7,11.0,-001.8,0009.42,0020.56,0007.76
2022-03-04 04:12:00,,0822.9,4.99,0.00,29.9,29.0,00.0,39.0,31.7,11.1,-001.7,0009.63,0021.55,0007.96
2022-03-04 04:13:00,,0822.7,5.02,0.00,29.9,29.0,00.0,38.9,31.6,11.1,-001.6,0009.83,0022.65,0008.14
2022-03-04 04:14:00,,0822.7,4.98,0.00,29.9,29.0,00.0,38.9,31.6,11.2,-002.1,0010.10,0023.24,0008.34
2022-03-04 04:15:00,,0822.7,5.01,0.00,29.9,29.0,00.0,38.9,31.6,11.3,-002.2,0010.30,0022.94,0008.54
2022-03-04 04:16:00,,0822.7,4.99,0.00,29.9,29.0,00.0,38.9,31.6,11.4,-001.8,0010.48,0023.68,0008.72
2022-03-04 04:17:00,,0822.7,5.01,0.00,29.9,29.0,00.0,38.9,31.6,11.5,-000.2,0010.66,0023.70,0008.91
2022-03-04 04:18:00,,0822.7,5.00,0.00,29.9,29.0,00.0,38.9,31.6,11.6,0000.7,0010.92,0023.89,0009.09
2022-03-04 04:19:00,,0822.7,5.00,0.00,29.9,29.0,00.0,38.9,31.6,11.6,0000.8,0011.02,0023.25,0009.26
2022-03-04 04:20:00,,0822.6,5.00,0.00,29.9,29.0,00.0,38.9,31.6,11.6,0000.7,0011.17,0024.09,0009.41
2022-03-04 04:21:00,,0822.7,5.00,0.00,29.9,29.0,00.0,38.9,31.6,11.6,-000.1,0011.33,0023.99,0009.53
2022-03-04 04:22:00,,0822.7,5.01,0.00,29.9,29.0,00.0,38.9,31.6,11.6,-000.2,0011.48,0024.93,0009.63
2022-03-04 04:23:00,,0822.7,4.98,0.00,29.9,29.0,00.0,38.9,31.6,11.6,0000.5,0011.59,0024.97,0009.75
2022-03-04 04:24:00,,0822.8,5.02,0.00,29.9,29.1,00.0,38.9,31.6,11.7,-000.0,0011.79,0025.34,0009.86
2022-03-04 04:25:00,,0822.8,4.99,0.00,29.9,29.1,00.0,38.9,31.7,11.7,-000.3,0011.87,0025.16,0009.95
2022-03-04 04:26:00,,0822.7,5.01,0.00,29.9,29.1,00.0,38.9,31.6,11.7,-000.4,0011.93,0024.83,0010.03
2022-03-04 04:27:00,,0822.7,4.99,0.00,29.9,29.1,00.0,38.9,31.7,11.7,-000.0,0012.03,0024.73,0010.11
2022-03-04 04:28:00,,0822.7,4.99,0.00,29.9,29.1,00.0,38.9,31.7,11.7,-000.8,0012.02,0026.08,0010.16
2022-03-04 04:29:00,,0822.8,5.01,0.00,29.9,29.1,00.0,38.9,31.7,11.8,-001.0,0012.05,0027.64,0010.19
2022-03-04 04:30:00,,0822.8,4.99,0.00,29.9,29.1,00.0,38.9,31.7,11.8,-001.3,0012.15,0028.27,0010.22
2022-03-04 04:31:00,,0822.8,5.02,0.00,29.9,29.1,00.0,38.9,31.7,11.8,-000.6,0012.20,0027.86,0010.24
2022-03-04 04:32:00,,0822.7,4.99,0.00,29.9,29.1,00.0,38.9,31.7,11.8,0000.5,0012.21,0027.94,0010.27
2022-03-04 04:33:00,,0822.7,5.00,0.00,29.9,29.1,00.0,38.9,31.7,11.8,0000.4,0012.34,0027.90,0010.34
2022-03-04 04:34:00,,0822.7,5.00,0.00,29.9,29.1,00.0,38.9,31.7,11.9,0000.1,0012.35,0026.21,0010.38
2022-03-04 04:35:00,,0822.7,5.01,0.00,29.9,29.1,00.0,38.9,31.7,11.9,0000.4,0012.30,0026.43,0010.42
2022-03-04 04:36:00,,0822.6,5.00,0.00,29.9,29.1,00.0,38.9,31.7,11.9,0001.0,0012.29,0027.75,0010.45
2022-03-04 04:37:00,,0822.6,4.99,0.00,29.9,29.1,00.0,38.9,31.7,11.9,0001.8,0012.36,0028.80,0010.47
2022-03-04 04:38:00,,0822.6,5.01,0.00,29.9,29.1,00.0,38.9,31.7,11.9,0001.6,0012.35,0028.32,0010.48
2022-03-04 04:39:00,,0822.6,5.00,0.00,29.9,29.1,00.0,38.9,31.7,11.9,0001.8,0012.48,0027.06,0010.54
2022-03-04 04:40:00,,0822.6,5.02,0.00,29.9,29.1,00.0,38.9,31.7,12.0,0001.6,0012.53,0025.08,0010.57
2022-03-04 04:41:00,,0822.6,4.99,0.00,29.9,29.1,00.0,38.9,31.7,12.0,0001.6,0012.53,0025.79,0010.58
2022-03-04 04:42:00,,0822.6,5.00,0.00,29.9,29.1,00.0,38.9,31.7,12.0,0001.5,0012.55,0026.39,0010.61
2022-03-04 04:43:00,,0822.6,5.00,0.00,29.9,29.1,00.0,38.9,31.7,12.0,0000.6,0012.56,0026.47,0010.62
2022-03-04 04:44:00,,0822.7,4.99,0.00,29.9,29.1,00.0,38.9,31.7,12.0,0000.8,0012.47,0027.21,0010.61
2022-03-04 04:45:00,,0822.7,5.00,0.00,29.9,29.1,00.0,38.9,31.6,12.0,0001.3,0012.59,0027.84,0010.62
2022-03-04 04:46:00,,0822.7,5.01,0.00,29.9,29.1,00.0,38.9,31.7,12.0,0001.7,0012.66,0027.51,0010.65
2022-03-04 04:47:00,,0822.7,5.01,0.00,29.9,29.0,00.0,38.9,31.7,12.0,0001.4,0012.75,0027.19,0010.67
2022-03-04 04:48:00,,0822.7,4.98,0.00,29.9,29.0,00.0,38.9,31.6,11.9,0001.1,0012.77,0027.01,0010.67
2022-03-04 04:49:00,,0822.7,5.01,0.00,29.9,29.1,00.0,38.9,31.6,11.9,0001.1,0012.75,0027.22,0010.67
2022-03-04 04:50:00,,0822.7,4.98,0.00,29.9,29.1,00.0,38.9,31.6,11.9,0001.3,0012.65,0027.17,0010.62
2022-03-04 04:51:00,,0822.6,5.01,0.00,29.9,29.1,00.0,38.9,31.6,12.0,0001.8,0012.55,0026.88,0010.61
2022-03-04 04:52:00,,0822.7,5.01,0.00,29.9,29.0,00.0,38.9,31.6,12.0,0001.6,0012.57,0026.14,0010.62
2022-03-04 04:53:00,,0822.7,5.00,0.00,29.9,29.0,00.0,38.9,31.6,11.9,0001.8,0012.56,0025.92,0010.63
2022-03-04 04:54:00,,0822.6,5.00,0.00,29.9,29.0,00.0,38.9,31.6,11.9,0002.8,0012.64,0026.25,0010.66
2022-03-04 04:55:00,,0822.6,5.00,0.00,29.9,29.0,00.0,38.9,31.6,11.9,0002.6,0012.75,0027.15,0010.71
2022-03-04 04:56:00,,0822.6,5.01,0.00,29.9,29.0,00.0,38.9,31.6,11.9,0002.6,0012.80,0027.80,0010.77
2022-03-04 04:57:00,,0822.5,4.99,0.00,29.9,29.0,00.0,38.9,31.6,11.9,0002.5,0012.84,0027.54,0010.80
2022-03-04 04:58:00,,0822.5,5.03,0.00,29.9,29.0,00.0,38.9,31.6,11.9,0002.8,0012.82,0026.72,0010.83
2022-03-04 04:59:00,,0822.5,4.99,0.00,29.9,29.0,00.0,38.9,31.6,11.9,0002.9,0012.87,0026.35,0010.89
